Tracking 17155 objects as of 30-July-2015
HD Live streaming from Space Station

SJ-7

Track SJ-7 now!
10-day predictions
SJ-7 is classified as:


NORAD ID: 28737
Int'l Code: 2005-024A
Perigee: 566.2 km
Apogee: 614.1 km
Inclination: 97.7 °
Period: 96.3 minutes
Semi major axis: 6961 km
RCS: 3.0015 m2 (large)
Launch date: July 5, 2005
Source: People's Republic of China (PRC)
Your satellite tracking list
Your tracking list is empty





NASA's NSSDC Master Catalog

Two Line Element Set (TLE):
1 28737U 05024A   15210.82714912 -.00000290  00000-0 -21107-4 0  9999
2 28737 097.6663 222.5138 0034396 091.2924 269.2228 14.94794230552108

Source of the keplerian elements: AFSPC

N2YO: 285